• In Österreich
  • Länderverzeichnis
  • Für 7 Tage
  • Wassertemperatur
  • Satellitenkarten
  • Wetterkarte
  • News
  • Widgets
  • user-avatar
    Anmelden

    Stündliche Wetter Popowo

    Heute, 13 November, Dienstag

    Zeit Temperatur Niederschläge Wind Luftdruck Luftfeuchtigkeit
    00:00 +9°C° 0 mm 3 m/S 750 mmHg 83%
    01:00 +9°C° 0 mm 2 m/S 750 mmHg 85%
    02:00 +9°C° 0 mm 2 m/S 750 mmHg 83%
    03:00 +9°C° 0 mm 2 m/S 750 mmHg 82%
    04:00 +9°C° 0 mm 3 m/S 750 mmHg 81%
    05:00 +9°C° 0 mm 2 m/S 750 mmHg 81%
    06:00 +9°C° 0 mm 2 m/S 750 mmHg 80%
    07:00 +8°C° 0 mm 2 m/S 750 mmHg 81%
    08:00 +9°C° 0 mm 2 m/S 750 mmHg 77%
    09:00 +10°C° 0 mm 3 m/S 750 mmHg 74%
    10:00 +11°C° 0 mm 3 m/S 750 mmHg 70%
    11:00 +12°C° 0.2 mm 4 m/S 751 mmHg 71%
    12:00 +12°C° 0.2 mm 4 m/S 751 mmHg 72%
    13:00 +12°C° 0 mm 5 m/S 751 mmHg 76%
    14:00 +10°C° 0.4 mm 5 m/S 751 mmHg 79%
    15:00 +10°C° 0.4 mm 5 m/S 752 mmHg 82%
    16:00 +11°C° 0.4 mm 4 m/S 752 mmHg 84%
    17:00 +10°C° 0.1 mm 4 m/S 752 mmHg 84%
    18:00 +10°C° 0.1 mm 4 m/S 753 mmHg 83%
    19:00 +10°C° 0.1 mm 4 m/S 753 mmHg 83%
    20:00 +8°C° 0 mm 4 m/S 753 mmHg 83%
    21:00 +8°C° 0 mm 4 m/S 754 mmHg 83%
    22:00 +8°C° 0 mm 4 m/S 754 mmHg 83%
    23:00 +7°C° 0 mm 4 m/S 754 mmHg 84%

    Morgen, 14 November, Mittwoch

    Zeit Temperatur Niederschläge Wind Luftdruck Luftfeuchtigkeit
    00:00 +7°C° 0 mm 4 m/S 754 mmHg 86%
    01:00 +7°C° 0 mm 4 m/S 755 mmHg 87%
    02:00 +6°C° 0 mm 4 m/S 755 mmHg 88%
    03:00 +6°C° 0 mm 4 m/S 755 mmHg 89%
    04:00 +6°C° 0 mm 4 m/S 755 mmHg 91%
    05:00 +5°C° 0 mm 4 m/S 755 mmHg 92%
    06:00 +5°C° 0 mm 4 m/S 756 mmHg 92%
    07:00 +5°C° 0 mm 4 m/S 756 mmHg 93%
    08:00 +6°C° 0 mm 4 m/S 756 mmHg 90%
    09:00 +6°C° 0 mm 4 m/S 756 mmHg 87%
    10:00 +7°C° 0 mm 4 m/S 756 mmHg 83%
    11:00 +8°C° 0 mm 4 m/S 756 mmHg 80%
    12:00 +9°C° 0 mm 3 m/S 757 mmHg 78%
    13:00 +10°C° 0 mm 3 m/S 757 mmHg 75%
    14:00 +9°C° 0 mm 3 m/S 757 mmHg 78%
    15:00 +9°C° 0 mm 2 m/S 757 mmHg 81%
    16:00 +9°C° 0 mm 1 m/S 757 mmHg 85%
    17:00 +9°C° 0 mm 1 m/S 757 mmHg 87%
    18:00 +8°C° 0 mm 1 m/S 757 mmHg 89%
    19:00 +7°C° 0 mm 1 m/S 757 mmHg 92%
    20:00 +6°C° 0 mm 0 m/S 757 mmHg 92%
    21:00 +6°C° 0 mm 0 m/S 757 mmHg 92%
    22:00 +6°C° 0 mm 0 m/S 757 mmHg 93%
    23:00 +6°C° 0 mm 1 m/S 757 mmHg 93%

    übermorgen, 15 November, Donnerstag

    Zeit Temperatur Niederschläge Wind Luftdruck Luftfeuchtigkeit
    00:00 +6°C° 0 mm 1 m/S 757 mmHg 93%
    01:00 +6°C° 0 mm 1 m/S 757 mmHg 93%
    02:00 +6°C° 0 mm 1 m/S 757 mmHg 93%
    03:00 +6°C° 0 mm 1 m/S 757 mmHg 93%
    04:00 +6°C° 0 mm 1 m/S 757 mmHg 92%
    05:00 +6°C° 0 mm 1 m/S 757 mmHg 92%
    06:00 +6°C° 0 mm 1 m/S 757 mmHg 92%
    07:00 +5°C° 0 mm 1 m/S 758 mmHg 92%
    08:00 +5°C° 0 mm 2 m/S 758 mmHg 87%
    09:00 +6°C° 0 mm 2 m/S 758 mmHg 83%
    10:00 +7°C° 0 mm 2 m/S 758 mmHg 79%
    11:00 +8°C° 0 mm 2 m/S 758 mmHg 75%
    12:00 +9°C° 0 mm 2 m/S 758 mmHg 71%
    13:00 +10°C° 0 mm 2 m/S 758 mmHg 67%
    14:00 +9°C° 0 mm 2 m/S 758 mmHg 72%
    15:00 +8°C° 0 mm 2 m/S 758 mmHg 76%
    16:00 +7°C° 0 mm 2 m/S 758 mmHg 80%
    17:00 +7°C° 0 mm 2 m/S 758 mmHg 83%
    18:00 +6°C° 0 mm 2 m/S 758 mmHg 86%
    19:00 +5°C° 0 mm 3 m/S 758 mmHg 88%
    20:00 +4°C° 0 mm 3 m/S 758 mmHg 89%
    21:00 +4°C° 0 mm 3 m/S 759 mmHg 90%
    22:00 +4°C° 0 mm 3 m/S 759 mmHg 91%
    23:00 +4°C° 0 mm 3 m/S 759 mmHg 91%

    16 November, Freitag

    Zeit Temperatur Niederschläge Wind Luftdruck Luftfeuchtigkeit
    00:00 +3°C° 0 mm 3 m/S 759 mmHg 91%
    01:00 +3°C° 0 mm 3 m/S 759 mmHg 91%
    02:00 +3°C° 0 mm 3 m/S 759 mmHg 91%
    03:00 +3°C° 0 mm 3 m/S 759 mmHg 90%
    04:00 +2°C° 0 mm 3 m/S 759 mmHg 90%
    05:00 +2°C° 0 mm 3 m/S 760 mmHg 90%
    06:00 +2°C° 0 mm 3 m/S 760 mmHg 89%
    07:00 +2°C° 0 mm 3 m/S 760 mmHg 89%
    08:00 +3°C° 0 mm 3 m/S 760 mmHg 83%
    09:00 +4°C° 0 mm 4 m/S 761 mmHg 77%
    10:00 +5°C° 0 mm 4 m/S 761 mmHg 71%
    11:00 +6°C° 0 mm 4 m/S 761 mmHg 68%
    12:00 +7°C° 0 mm 4 m/S 761 mmHg 64%
    13:00 +7°C° 0 mm 4 m/S 761 mmHg 61%
    14:00 +8°C° 0 mm 3 m/S 761 mmHg 65%
    15:00 +7°C° 0 mm 3 m/S 761 mmHg 70%
    16:00 +5°C° 0 mm 3 m/S 761 mmHg 74%
    17:00 +4°C° 0 mm 3 m/S 761 mmHg 77%
    18:00 +4°C° 0 mm 3 m/S 761 mmHg 80%
    19:00 +3°C° 0 mm 3 m/S 761 mmHg 82%
    20:00 +3°C° 0 mm 3 m/S 762 mmHg 83%
    21:00 +2°C° 0 mm 3 m/S 762 mmHg 84%
    22:00 +2°C° 0 mm 3 m/S 762 mmHg 85%
    23:00 +2°C° 0 mm 3 m/S 762 mmHg 86%

    17 November, Samstag

    Zeit Temperatur Niederschläge Wind Luftdruck Luftfeuchtigkeit
    00:00 +2°C° 0 mm 3 m/S 762 mmHg 87%
    01:00 +1°C° 0 mm 3 m/S 762 mmHg 88%
    02:00 +1°C° 0 mm 3 m/S 762 mmHg 88%
    03:00 +1°C° 0 mm 3 m/S 762 mmHg 89%
    04:00 +1°C° 0 mm 3 m/S 762 mmHg 89%
    05:00 0°C° 0 mm 3 m/S 762 mmHg 90%
    06:00 0°C° 0 mm 3 m/S 762 mmHg 90%
    07:00 0°C° 0 mm 3 m/S 762 mmHg 91%
    08:00 +1°C° 0 mm 3 m/S 762 mmHg 86%
    09:00 +1°C° 0 mm 4 m/S 762 mmHg 81%
    10:00 +3°C° 0 mm 4 m/S 763 mmHg 75%
    11:00 +4°C° 0 mm 4 m/S 763 mmHg 71%
    12:00 +4°C° 0 mm 4 m/S 762 mmHg 67%
    13:00 +5°C° 0 mm 3 m/S 762 mmHg 63%
    14:00 +4°C° 0 mm 3 m/S 762 mmHg 66%
    15:00 +4°C° 0 mm 3 m/S 762 mmHg 69%
    16:00 +4°C° 0 mm 2 m/S 762 mmHg 72%
    17:00 +3°C° 0 mm 2 m/S 762 mmHg 75%
    18:00 +2°C° 0 mm 3 m/S 762 mmHg 77%
    19:00 +1°C° 0 mm 3 m/S 762 mmHg 80%
    20:00 +2°C° 0 mm 2 m/S 762 mmHg 81%
    21:00 +2°C° 0 mm 2 m/S 761 mmHg 81%
    22:00 +1°C° 0 mm 2 m/S 761 mmHg 82%
    23:00 +1°C° 0 mm 2 m/S 761 mmHg 82%

    18 November, Sonntag

    Zeit Temperatur Niederschläge Wind Luftdruck Luftfeuchtigkeit
    00:00 +1°C° 0 mm 2 m/S 761 mmHg 81%
    01:00 +2°C° 0 mm 1 m/S 761 mmHg 81%
    02:00 +2°C° 0 mm 1 m/S 760 mmHg 81%
    03:00 +1°C° 0 mm 1 m/S 760 mmHg 81%
    04:00 +1°C° 0 mm 1 m/S 759 mmHg 81%
    05:00 +1°C° 0 mm 1 m/S 759 mmHg 81%
    06:00 +1°C° 0 mm 1 m/S 759 mmHg 81%
    07:00 +1°C° 0 mm 1 m/S 759 mmHg 81%
    08:00 +2°C° 0 mm 1 m/S 759 mmHg 76%
    09:00 +3°C° 0 mm 1 m/S 758 mmHg 72%
    10:00 +4°C° 0 mm 1 m/S 758 mmHg 67%
    11:00 +5°C° 0 mm 1 m/S 758 mmHg 65%
    12:00 +5°C° 0 mm 2 m/S 757 mmHg 62%
    13:00 +6°C° 0 mm 2 m/S 757 mmHg 60%
    14:00 +5°C° 0 mm 2 m/S 756 mmHg 66%
    15:00 +5°C° 0 mm 2 m/S 756 mmHg 73%
    16:00 +4°C° 0 mm 2 m/S 755 mmHg 79%
    17:00 +4°C° 0 mm 2 m/S 755 mmHg 80%
    18:00 +4°C° 0 mm 3 m/S 755 mmHg 81%
    19:00 +4°C° 0 mm 3 m/S 755 mmHg 83%
    20:00 +4°C° 0 mm 4 m/S 755 mmHg 80%
    21:00 +4°C° 0 mm 4 m/S 755 mmHg 78%
    22:00 +4°C° 0 mm 4 m/S 755 mmHg 76%
    23:00 +3°C° 0.1 mm 4 m/S 754 mmHg 74%
    Mehr zeigen